Location: Caltech
(34.1382°N, 118.1253°W)
Time: 13:03:50
(UTC-08:00)

ADEOS II - Visible Passes

Search period start: 19 February 2017 00:00
Search period end: 01 March 2017 00:00
Orbit: 800 x 801 km, 98.4° (Epoch: 18 February)

Date Brightness Start Highest point End Pass type
(mag) Time Alt. Az. Time Alt. Az. Time Alt. Az.
19 Feb 3.9 04:18:26 10° N 04:19:57 19° N 04:19:57 19° N visible
20 Feb 4.1 03:51:54 10° NNE 03:53:24 20° NNE 03:53:24 20° NNE visible
21 Feb 4.4 03:25:42 10° NNE 03:26:52 17° NNE 03:26:52 17° NNE visible
21 Feb 3.9 05:06:41 10° NNW 05:07:50 14° NW 05:07:50 14° NW visible
22 Feb 4.9 02:59:55 10° NE 03:00:20 12° NE 03:00:20 12° NE visible
22 Feb 3.7 04:39:23 10° N 04:41:18 20° NNW 04:41:18 20° NNW visible
23 Feb 3.6 04:12:35 10° N 04:14:45 25° N 04:14:45 25° N visible
24 Feb 3.8 03:46:07 10° NNE 03:48:14 25° NNE 03:48:14 25° NNE visible
24 Feb 4.1 05:29:10 10° NW 05:29:11 10° NW 05:29:11 10° NW visible
25 Feb 4.3 03:19:59 10° NNE 03:21:41 20° NE 03:21:41 20° NE visible
25 Feb 3.7 05:00:38 10° NNW 05:02:39 17° NW 05:02:39 17° NW visible
26 Feb 4.8 02:54:18 10° NE 02:55:09 14° NE 02:55:09 14° NE visible
26 Feb 3.4 04:33:29 10° N 04:36:07 25° NNW 04:36:07 25° NNW visible
27 Feb 3.2 04:06:45 10° N 04:09:35 32° N 04:09:35 32° N visible
28 Feb 3.5 03:40:21 10° NNE 03:43:03 31° NNE 03:43:03 31° NNE visible
28 Feb 3.9 05:22:36 10° NW 05:24:01 12° NW 05:24:01 12° NW visible
